Theta_e
344 352 349 348 348 346 349 347 348 353 347 349 350 350 348 348 347 347 348 352 348 345 345 345 345 344 345 350 350 348 346 346 345 342 338 345 341 340 345 341 342 338 339
345 346 351 346 350 350 352 354 355 352 352 348 354 346 351 347 347 347 348 352 349 350 350 349 349 351 350 349 350 350 348 347 346 345 346 346 340 338 341 342 342 342 339
336 351 352 347 347 351 354 344 355 357 356 348 351 347 347 349 349 348 348 348 349 349 350 350 349 351 351 351 348 349 346 348 346 342 342 345 336 337 337 337 337 341 339
338 340 351 351 346 348 352 350 350 352 350 349 348 347 347 347 347 348 349 347 343 345 345 347 346 347 350 349 349 348 347 346 345 345 344 344 346 344 341 340 339 337 339
341 340 346 346 347 348 349 350 350 352 355 350 351 346 348 350 353 346 338 337 338 341 345 343 347 345 343 344 345 347 345 346 343 344 342 342 342 343 342 341 339 336 337
342 340 342 345 348 350 348 350 351 352 354 352 348 348 353 355 335 338 339 338 339 338 343 346 344 344 343 342 343 346 341 342 343 342 341 344 343 342 342 341 339 337 335
340 341 340 343 339 342 349 350 351 350 348 347 350 354 347 341 342 340 338 337 337 335 337 339 343 348 345 344 343 342 342 344 343 341 339 342 341 341 342 342 339 338 335
337 338 338 342 346 349 351 351 352 355 355 351 355 350 342 341 342 341 338 336 334 336 343 342 342 342 346 344 344 345 345 346 344 344 343 343 343 341 341 340 339 338 336
337 336 337 346 350 351 352 351 354 357 358 356 352 339 342 342 343 341 339 341 335 334 336 338 342 344 344 344 343 343 342 342 343 339 340 341 342 343 341 338 340 336 338
335 337 350 350 351 352 351 353 353 358 357 355 339 340 342 343 344 341 339 343 342 340 342 338 334 333 333 332 333 336 339 341 341 341 340 338 339 340 343 342 340 340 340
356 357 355 353 353 353 355 353 348 355 354 346 338 340 343 345 343 340 338 337 338 338 337 336 335 330 329 330 329 329 334 343 343 336 338 341 342 341 339 340 340 338 340
361 362 361 352 349 349 349 347 342 345 337 337 338 342 344 344 342 339 338 338 335 333 330 328 321 320 321 322 324 325 327 332 339 336 339 339 340 340 340 338 339 339 339
358 365 361 350 343 342 346 345 351 339 345 340 342 346 343 343 340 338 337 334 331 324 320 319 320 321 322 328 323 323 328 331 334 334 335 336 338 337 336 336 336 338 338
345 356 360 354 345 351 353 345 349 346 347 349 349 346 342 338 336 337 333 331 327 323 322 325 322 322 323 323 326 327 325 327 329 330 331 331 332 333 334 336 335 336 337
347 351 362 358 357 355 350 349 347 347 349 349 348 345 341 338 337 333 331 327 321 319 320 325 323 321 320 319 322 324 325 324 324 325 326 327 328 329 331 332 334 335 335
345 346 352 355 353 346 343 342 339 340 344 346 345 341 338 337 334 332 329 323 319 319 321 323 321 319 316 315 317 319 321 322 323 324 326 325 325 325 327 329 329 332 332
342 343 347 352 348 343 342 339 337 343 345 343 340 338 335 334 332 328 321 318 318 317 320 318 316 315 315 316 315 317 318 318 319 319 320 321 322 323 325 325 327 329 329
343 343 348 336 338 340 340 339 343 341 341 340 338 334 334 332 328 322 318 317 320 314 315 315 315 313 313 312 313 315 316 316 317 317 317 317 318 318 319 319 320 322 325
341 339 346 344 343 338 338 340 342 341 335 339 336 334 331 328 323 318 316 318 316 315 315 315 315 315 312 311 312 312 313 312 313 314 314 314 314 315 316 316 317 317 317
342 342 343 340 337 337 342 341 340 336 333 334 332 331 329 325 321 319 313 312 313 314 314 314 314 313 313 313 313 312 311 311 311 311 311 311 312 312 313 312 313 313 314
344 338 340 341 337 340 339 338 337 335 334 332 330 328 326 323 320 316 314 313 313 313 313 312 312 313 312 312 311 310 306 306 304 309 308 307 307 308 308 309 308 310 310
345 341 343 342 341 339 337 336 335 334 332 330 327 327 324 319 316 314 311 309 309 307 310 306 304 309 310 309 304 301 299 300 302 303 302 304 304 304 304 305 306 307 308
345 343 341 339 338 337 336 335 334 332 330 328 324 326 322 316 313 309 305 304 304 304 304 302 305 307 306 302 303 304 304 302 298 297 298 300 301 303 302 305 306 307 308
342 342 341 340 339 337 336 334 332 330 328 325 322 319 316 313 310 306 305 303 302 301 301 300 300 299 298 298 301 301 299 297 296 296 296 296 298 301 303 303 305 306 307
341 341 340 340 337 336 334 332 330 328 326 324 321 319 316 313 309 305 303 302 301 300 300 299 299 298 298 297 297 297 296 296 296 296 296 296 296 298 302 303 304 305 305
342 341 339 337 335 334 332 331 329 327 326 323 321 318 315 311 308 305 303 301 301 300 299 299 298 297 297 298 298 296 296 296 296 296 296 296 297 300 301 302 302 302 304
Wind_Speed
19 18 19 20 20 20 16 15 13 10 9 8 7 7 6 6 6 7 8 9 8 10 10 11 10 12 11 10 11 11 11 12 15 16 15 11 15 12 13 15 16 19 16
20 22 20 20 19 20 18 15 13 13 10 8 6 6 6 7 6 7 9 10 11 12 12 13 12 10 13 12 13 14 12 13 13 14 11 12 14 14 15 18 18 16 16
32 20 21 23 21 20 17 16 13 12 13 11 10 9 7 7 8 8 8 9 11 12 13 12 13 13 12 13 12 12 13 12 12 13 12 12 15 15 14 18 21 27 27
19 29 25 25 23 21 18 16 15 14 13 12 11 8 8 8 8 8 6 6 6 7 7 6 7 8 10 10 11 13 13 12 10 8 10 12 13 14 18 14 20 24 25
20 26 25 24 23 22 18 17 16 13 11 11 10 9 6 4 3 1 1 2 4 6 6 7 7 7 9 11 9 10 12 11 12 13 13 14 15 17 14 13 18 20 19
24 23 26 21 20 21 19 17 15 12 9 9 8 7 4 2 3 2 3 6 9 12 10 9 10 10 8 8 11 11 16 12 15 17 18 18 18 21 19 14 16 18 18
23 23 27 26 18 18 19 18 14 12 10 9 8 6 5 5 3 3 4 8 11 15 15 13 10 8 10 11 12 11 12 15 18 18 21 20 21 20 17 17 15 17 18
27 29 29 26 19 19 19 17 15 15 11 10 8 7 7 5 4 2 5 12 13 12 11 9 6 5 8 9 10 8 8 9 11 11 15 17 21 20 19 17 16 16 21
31 29 29 23 21 19 18 18 16 14 12 10 10 9 7 5 4 3 6 8 9 11 11 10 9 8 8 9 9 9 9 8 9 12 13 15 15 15 19 18 13 11 14
32 31 25 23 19 17 17 17 15 14 13 12 12 10 6 5 5 5 6 5 6 6 6 12 11 12 13 12 11 12 13 11 12 14 15 15 13 13 14 20 18 20 15
19 21 23 21 15 15 17 17 17 16 16 15 12 8 7 7 7 7 6 8 6 6 7 9 12 18 18 17 16 15 13 14 14 13 13 12 11 11 11 11 15 21 21
14 18 22 20 20 20 19 18 19 20 17 14 10 9 10 10 8 7 7 8 10 12 14 11 16 16 15 15 15 14 15 13 10 13 10 11 13 12 11 13 13 17 21
19 18 20 23 23 23 23 23 20 20 14 13 12 9 8 10 8 7 8 10 13 14 13 14 14 14 12 10 12 12 9 8 9 10 11 8 9 12 14 14 17 18 21
33 24 21 22 24 23 20 21 17 15 13 12 11 10 9 6 4 6 10 14 15 12 14 12 13 12 13 8 5 9 8 8 7 10 11 12 15 15 13 12 15 14 16
27 22 20 17 17 22 25 23 16 18 16 12 11 11 9 7 5 7 10 12 12 11 9 5 6 7 9 11 12 11 9 8 8 11 11 11 11 13 12 13 14 14 15
29 24 20 19 22 28 26 24 22 19 18 17 14 12 12 7 6 9 12 12 10 7 5 5 7 8 10 10 10 10 10 9 9 10 10 11 14 14 14 14 17 15 16
34 23 25 28 25 28 24 22 23 22 19 17 14 11 7 6 8 10 10 9 6 6 5 5 5 7 8 9 10 11 11 13 13 12 12 12 12 13 12 13 17 17 18
24 13 36 29 27 24 23 24 21 16 18 16 15 11 7 7 8 7 6 4 5 6 5 5 6 7 8 9 10 10 11 11 12 13 13 13 14 14 13 13 14 15 17
38 44 32 28 24 23 24 26 22 17 15 16 15 12 8 7 5 4 1 3 3 4 5 5 5 6 9 10 10 10 11 12 13 13 14 14 15 16 16 17 17 16 16
26 39 33 32 31 25 26 21 20 19 16 15 13 12 8 5 2 3 2 3 4 5 3 3 5 6 7 7 7 9 11 12 12 13 14 15 15 15 16 17 18 19 19
27 36 37 25 22 20 20 22 21 21 19 17 15 13 8 8 8 6 4 3 4 3 3 3 4 5 6 8 9 9 10 11 14 13 14 14 15 16 16 16 17 16 17
28 32 31 21 20 22 21 22 22 20 19 18 16 13 9 9 8 7 6 3 1 0 1 3 4 4 5 7 11 13 13 13 13 13 15 15 16 16 16 18 18 18 17
21 23 22 21 21 22 24 22 21 21 20 18 15 11 11 11 9 7 5 3 2 1 2 3 2 2 5 7 7 8 9 10 14 17 16 16 16 16 18 17 18 19 19
22 21 22 22 24 25 23 22 21 21 20 18 15 13 13 12 10 9 6 5 4 4 5 4 4 5 7 8 7 7 11 15 16 17 19 20 19 18 18 18 17 19 21
21 24 24 25 27 25 25 23 23 21 18 16 14 13 13 12 11 9 7 5 5 5 5 5 6 7 6 9 9 11 15 16 17 18 20 21 21 19 17 19 20 22 22
24 24 25 25 26 25 25 24 23 21 18 16 15 15 14 13 10 8 6 5 5 6 5 5 7 8 8 6 11 14 17 19 20 20 21 21 18 17 18 19 21 22 21
Wind_Direction
209 213 208 210 213 212 212 220 225 234 232 239 239 250 238 250 255 259 262 258 287 281 282 282 286 284 273 262 266 260 267 269 269 274 257 256 266 253 236 249 235 250 249
214 216 218 218 212 217 215 218 231 238 236 233 241 245 248 248 248 278 290 273 284 283 277 269 272 276 270 268 259 256 259 264 263 262 259 261 268 262 255 260 247 242 235
215 207 212 220 220 217 216 216 224 231 231 243 247 244 245 251 272 288 289 286 293 287 278 269 260 273 266 263 254 257 271 264 262 259 254 255 268 271 269 277 266 258 248
209 219 212 216 220 219 215 226 230 231 236 238 249 241 257 278 295 302 299 292 297 300 302 298 290 279 263 262 264 259 249 242 257 255 267 269 272 267 272 266 278 268 259
223 209 208 209 215 216 213 221 221 228 231 241 237 235 262 267 295 240 134 19 359 341 325 315 304 297 290 277 276 259 253 253 245 260 276 277 272 258 266 269 278 275 264
218 207 200 203 211 208 209 212 211 217 219 225 219 218 218 165 154 125 61 346 330 316 300 290 292 295 298 300 286 280 257 250 245 253 265 272 268 271 269 264 272 266 260
208 202 206 205 205 203 200 200 201 199 200 196 197 201 184 172 163 142 16 347 333 322 313 300 289 273 284 298 305 305 288 268 267 270 272 270 275 274 279 266 276 256 256
204 202 200 205 201 189 187 188 186 185 192 191 188 184 182 181 186 207 353 354 346 347 1 360 332 281 276 298 303 290 292 286 292 283 290 288 277 278 270 280 280 263 244
202 198 203 193 185 180 179 178 179 182 182 178 177 182 197 197 208 270 329 357 347 355 360 7 2 344 325 310 308 301 303 299 297 302 291 292 293 286 270 268 253 258 255
191 191 183 181 175 170 173 176 185 178 168 167 181 199 208 220 239 285 321 358 351 357 353 339 339 334 324 317 311 302 300 304 305 307 307 309 304 294 283 275 257 251 256
181 179 176 170 172 175 174 181 173 165 168 176 192 206 222 236 247 282 301 326 325 334 321 315 304 310 305 304 305 300 292 289 295 307 306 306 290 299 301 299 275 258 252
180 180 177 178 179 174 177 178 177 179 181 189 203 220 228 235 244 274 295 317 324 325 318 316 315 321 313 304 300 299 294 298 303 309 304 304 304 294 285 285 280 282 268
170 187 185 182 181 182 182 178 171 176 180 195 207 197 212 235 253 282 305 321 327 328 328 329 327 328 326 342 318 305 308 306 287 287 292 303 303 311 312 303 300 289 282
177 179 184 184 180 176 170 170 170 178 189 198 199 192 192 200 242 294 317 332 339 349 348 349 354 2 353 350 27 314 308 306 311 301 303 304 300 296 309 310 303 295 296
170 167 177 176 177 161 164 163 172 192 193 206 200 196 193 182 265 303 319 329 331 337 348 2 355 2 8 16 18 13 3 333 317 302 302 305 301 303 299 302 302 299 298
189 180 194 178 181 179 179 182 192 201 207 208 206 214 211 229 281 300 311 322 330 342 21 25 9 7 6 9 13 14 15 14 6 358 353 335 314 308 296 293 284 298 304
215 212 190 182 177 183 188 197 206 210 209 210 211 214 219 261 288 308 322 333 350 13 48 29 13 5 5 13 15 16 16 11 5 6 354 350 346 337 338 310 293 290 294
198 200 197 184 186 196 202 205 211 210 210 196 205 210 229 261 292 313 329 345 31 33 35 26 23 11 2 2 7 7 6 3 359 359 356 354 354 353 352 342 335 332 306
158 184 189 178 183 203 213 208 211 193 186 203 202 206 224 265 289 303 344 97 78 60 51 39 24 18 353 1 356 358 0 354 352 348 345 344 342 340 338 337 334 331 330
194 182 176 191 196 204 200 209 181 176 178 190 190 202 218 237 167 145 160 148 102 88 73 43 16 11 360 353 348 351 354 358 352 350 344 341 338 338 332 333 334 333 332
189 183 188 193 209 184 176 176 176 177 179 180 184 194 200 176 179 160 157 146 114 98 67 45 17 7 356 342 344 342 344 347 349 347 338 334 333 332 329 325 324 325 325
187 191 198 186 178 181 181 181 177 180 179 180 189 194 192 181 170 166 175 163 111 42 29 355 1 350 349 341 332 337 344 348 349 338 334 332 329 329 328 326 325 326 324
183 185 188 185 184 183 179 179 180 184 182 182 185 192 187 179 176 172 199 198 235 210 311 336 340 350 316 333 335 334 334 331 331 334 335 330 326 323 325 328 324 323 321
184 182 182 182 177 177 177 181 184 185 183 180 181 181 178 180 179 190 186 214 235 269 285 288 294 309 318 328 336 339 314 324 327 331 331 330 327 321 321 323 320 317 321
186 181 185 185 182 176 181 180 183 182 183 183 183 184 186 183 183 190 196 210 246 261 272 292 303 303 306 311 304 309 315 319 323 323 323 323 325 323 322 320 318 315 317
186 183 184 183 177 181 180 182 181 180 185 187 189 190 187 182 181 191 199 227 242 248 270 290 292 305 310 317 307 317 319 320 322 323 324 325 324 317 316 314 316 315 315